Home > Time Zones > World Clock > Weather > Iran > Tehran > Past weeks

Flag for Iran Weather past 2 weeks in Tehran, Iran

Now
82 °F

Passing clouds.


Feels Like: 80 °F
Forecast: 69 / 92 °F
Wind: 5 mph from Northeast

Location: Tehran-Mehrabad

Current Time: Sep 3, 2014 at 12:21:31 AM

Latest Report: Sep 2, 2014 at 11:30 PM


Visibility: N/A

Pressure: 30.01 "Hg

Humidity: 23%

Dew point: 41 °F

Location of TehranLocation

Historic Weather in Tehran — Graph

°F

Tehran temperature yesterday

Maximum temperature yesterday: 91 °F (at 4:00 PM)
Minimum temperature yesterday: 75 °F (at 5:00 AM)
Average temperature yesterday: 84 °F

Past Weeks' High & Low Weather Summary

 TemperatureHumidityPressure
High100 °F (Aug 20, 4:00 PM)50% (Aug 31, 3:30 AM)30.09 "Hg (Aug 31, 3:30 AM)
Low73 °F (Aug 31, 4:30 AM)7% (Aug 29, 6:30 PM)29.89 "Hg (Aug 21, 6:30 PM)
Average86 °F18%29.99 "Hg
* Reported Aug 18 11:30 PM — Sep 2 11:30 PM, Tehran, Weather by CustomWeather, © 2014

Note: Actual official high and low records may vary slightly from our data, if they occured in-between our weather recording intervals... More about our weather records

Advertising

Tehran weather history for previous 24 hours

 ConditionsComfort  
Time TempWeatherWind HumidityBarometerVisibility
11:30 PM
Sep 2
82 °FPassing clouds.5 mph23%30.01 "HgN/A
11:00 PM82 °FPassing clouds.5 mph21%30.01 "HgN/A
10:30 PM86 °FPassing clouds.No wind19%30.01 "HgN/A
10:00 PM86 °FPassing clouds.5 mph19%30.01 "HgN/A
9:30 PM86 °FPassing clouds.5 mph18%30.01 "HgN/A
9:00 PM88 °FPassing clouds.5 mph13%29.98 "HgN/A
8:30 PM88 °FPassing clouds.5 mph13%29.98 "HgN/A
8:00 PM90 °FPassing clouds.7 mph13%29.95 "HgN/A
7:30 PM90 °FPassing clouds.7 mph13%29.95 "HgN/A
7:00 PM90 °FPassing clouds.9 mph14%29.95 "HgN/A
6:30 PM91 °FPassing clouds.7 mph13%29.95 "HgN/A
6:00 PM91 °FPassing clouds.7 mph13%29.95 "HgN/A
5:30 PM91 °FPassing clouds.9 mph13%29.95 "HgN/A
5:00 PM91 °FPassing clouds.5 mph13%29.95 "HgN/A
4:30 PM91 °FPassing clouds.7 mph13%29.95 "HgN/A
4:00 PM91 °FPassing clouds.5 mph13%29.95 "HgN/A
3:30 PM90 °FPassing clouds.5 mph14%29.98 "HgN/A
2:30 PM90 °FPassing clouds.7 mph15%29.98 "HgN/A
2:00 PM90 °FPassing clouds.7 mph15%30.01 "HgN/A
1:30 PM88 °FPassing clouds.9 mph17%30.01 "HgN/A
1:00 PM88 °FPassing clouds.12 mph16%30.01 "HgN/A
12:30 PM88 °FPassing clouds.12 mph16%30.04 "HgN/A
12:00 PM86 °FSunny.9 mph17%30.04 "Hg10 mi
11:30 AM84 °FSunny.9 mph19%30.04 "Hg10 mi
11:00 AM86 °FSunny.9 mph17%30.07 "Hg10 mi
10:30 AM84 °FSunny.12 mph19%30.07 "Hg10 mi
10:00 AM84 °FPassing clouds.9 mph18%30.04 "HgN/A
9:30 AM82 °FPassing clouds.7 mph19%30.04 "HgN/A
9:00 AM81 °FPassing clouds.5 mph23%30.04 "HgN/A
8:30 AM82 °FPassing clouds.5 mph19%30.01 "HgN/A
8:00 AM81 °FPassing clouds.5 mph24%30.01 "HgN/A
7:30 AM79 °FPassing clouds.No wind23%30.01 "HgN/A
7:00 AM77 °FPassing clouds.7 mph26%30.01 "HgN/A
6:30 AM75 °FClear.5 mph31%29.98 "Hg10 mi
6:00 AM75 °FClear.No wind34%29.98 "Hg10 mi
5:30 AM75 °FClear.No wind34%29.98 "Hg10 mi
5:00 AM75 °FClear.No wind31%29.95 "Hg10 mi
4:30 AM77 °FClear.5 mph32%29.95 "Hg10 mi
3:00 AM77 °FClear.5 mph32%29.95 "Hg10 mi
2:30 AM79 °FClear.5 mph30%29.95 "Hg10 mi
2:00 AM79 °FClear.5 mph30%29.95 "Hg10 mi
1:00 AM82 °FClear.7 mph25%29.95 "Hg10 mi
12:30 AM82 °FClear.7 mph25%29.95 "Hg10 mi
12:00 AM84 °FClear.7 mph23%29.95 "Hg10 mi
Weather by CustomWeather, © 2014

See weather overviewHow to use our weather pages